ECMWFFLT2_850_thetae_111.txt.gz
Theta_e
334 333 331 326 321 319 317 314 313 313 313 313 313 312 311 311 311 311 312 313 313 313 314 316 315 316 319 322 324 325 323 322 321 321 318 316 316 314 312 313 314 315 315 315 317 320 324 329 332 333 333 332 332 331 329 329 329 324 320 320 320 319
335 335 332 327 322 320 319 316 313 313 313 313 314 313 312 312 311 311 312 313 313 312 313 315 315 315 316 319 322 324 323 321 321 322 320 317 318 317 314 314 315 316 316 316 317 319 323 327 330 332 333 333 332 329 327 329 329 325 322 321 322 322
336 336 333 328 324 323 321 317 314 314 314 314 314 314 313 313 313 313 313 313 313 312 313 314 313 313 314 316 320 322 322 321 322 322 322 320 319 318 317 317 317 317 318 319 319 320 322 325 327 329 332 334 333 329 327 328 328 327 325 323 322 323
337 337 335 332 328 327 322 317 315 314 315 316 315 316 315 315 314 314 314 313 313 313 313 313 313 313 313 314 318 321 321 321 321 322 323 322 321 321 320 320 320 320 321 322 322 321 322 324 325 327 332 334 333 330 329 329 328 328 327 325 323 323
340 339 338 336 333 331 324 318 317 317 319 321 322 322 321 321 320 320 318 315 314 314 313 313 314 315 313 314 316 319 320 321 321 322 323 324 323 322 322 322 322 322 323 323 323 324 323 325 327 328 332 336 335 332 332 331 330 329 328 326 323 323
342 340 339 338 338 335 325 320 321 323 325 329 331 331 329 331 331 331 329 323 318 317 318 319 320 321 318 317 318 319 319 320 320 321 322 324 324 323 324 324 323 323 323 323 326 328 328 329 331 330 330 335 335 333 333 332 330 329 328 326 324 323
342 341 340 339 340 337 328 326 328 329 332 334 336 335 334 335 334 334 334 331 325 323 326 327 327 328 325 324 324 325 323 320 319 321 322 323 324 324 325 325 324 324 323 326 332 334 333 334 334 332 330 333 335 334 333 333 331 329 329 327 324 323
342 341 340 340 340 338 334 334 333 333 336 337 337 336 336 336 333 332 334 335 332 330 332 332 330 330 329 329 329 329 329 325 320 320 322 324 324 322 324 325 325 325 324 330 336 336 336 336 334 334 332 333 335 334 334 333 331 330 330 328 325 324
343 341 341 340 339 339 338 337 336 336 337 337 336 336 336 336 334 333 333 335 335 334 334 334 333 332 332 331 330 329 331 330 326 321 319 322 324 321 319 321 323 324 325 330 336 336 337 336 334 334 333 333 334 334 334 333 331 332 331 329 327 325
343 342 341 340 339 339 339 337 337 338 338 336 336 335 336 336 334 334 334 335 336 335 335 334 334 334 333 332 331 331 331 331 329 326 320 319 324 325 321 317 318 321 323 327 333 335 336 336 333 333 333 333 333 332 334 333 332 332 330 329 328 327
343 342 341 340 339 339 339 337 337 337 338 337 335 335 335 335 335 334 334 334 336 336 335 335 335 335 335 333 332 332 333 332 330 329 325 320 325 330 327 321 316 316 320 323 329 335 336 335 333 332 333 333 332 332 333 334 332 331 330 329 329 328
342 342 341 340 339 339 338 337 337 337 338 337 336 335 334 335 334 333 333 333 334 335 335 335 336 336 335 334 333 333 334 333 331 329 328 324 325 329 328 326 321 314 318 323 328 335 336 334 333 332 331 331 332 332 332 333 332 331 331 331 330 329
341 341 340 339 339 339 338 337 338 338 337 336 335 334 334 334 334 334 334 333 333 333 333 334 335 335 336 335 334 335 335 334 333 330 329 327 326 327 326 327 325 316 321 329 330 333 335 333 332 330 329 330 332 331 331 332 333 332 331 331 330 330
340 340 339 339 340 339 338 338 337 338 337 335 334 334 334 333 333 334 333 332 331 331 331 331 333 334 334 335 336 336 336 335 334 332 331 330 328 327 325 327 327 321 325 333 333 333 334 333 330 329 329 330 331 332 331 333 334 333 332 330 329 330
340 340 339 339 340 339 338 338 337 336 336 335 334 334 333 333 333 333 332 331 331 329 329 330 332 332 332 334 335 335 335 335 335 334 333 332 329 329 326 327 329 327 329 333 333 333 333 332 331 330 330 330 331 332 331 333 334 333 332 330 329 330
340 339 339 339 339 339 338 337 337 336 336 335 334 333 334 334 333 333 332 330 330 329 330 330 331 331 331 332 333 333 333 334 335 335 334 333 331 331 330 330 330 330 330 332 333 333 332 332 331 331 330 329 330 331 331 332 333 333 332 330 329 330
340 340 340 339 339 339 338 338 337 337 336 335 334 334 335 334 334 333 331 330 330 331 331 331 331 330 330 330 330 331 331 332 332 333 333 333 332 332 332 332 331 329 330 331 332 332 331 330 330 331 331 330 330 330 332 332 331 332 332 330 329 329
340 340 339 339 339 339 338 338 337 336 336 336 334 334 334 334 333 333 333 332 332 332 332 331 331 330 329 328 329 329 330 330 330 331 332 333 332 332 332 332 331 329 329 329 330 331 332 331 331 331 331 330 330 330 332 333 330 329 332 331 331 330
340 339 339 338 338 338 338 338 337 337 336 335 335 335 335 334 334 333 333 334 333 333 332 331 330 330 329 329 328 328 329 330 330 331 331 332 332 331 331 331 329 328 330 330 328 330 332 332 332 331 330 330 330 330 331 332 330 329 331 331 332 331
339 338 338 338 338 338 338 338 337 337 337 336 336 336 336 335 335 334 334 334 334 333 332 331 330 330 329 328 328 328 328 328 329 330 331 331 331 331 331 331 330 330 332 332 329 329 331 332 331 331 330 330 331 330 330 331 331 331 331 330 331 331
337 336 336 336 338 337 337 338 337 336 337 337 337 336 336 335 335 334 333 333 332 332 332 331 330 329 329 328 328 328 328 328 329 330 330 330 331 331 331 331 330 331 333 332 330 329 330 331 331 330 330 331 331 331 332 332 331 332 330 328 330 331
334 334 334 335 336 336 336 338 338 337 337 337 337 336 335 335 334 333 332 332 332 331 331 330 330 329 329 329 329 328 327 328 329 330 331 330 331 331 331 330 330 330 331 331 330 330 330 331 330 330 331 331 332 333 333 333 332 332 330 328 330 331
335 334 334 335 336 337 338 338 339 338 337 337 336 336 336 335 333 332 332 332 331 331 331 331 331 330 329 329 330 329 327 327 328 329 330 330 330 330 330 330 329 329 330 331 331 330 330 330 330 331 331 331 332 333 333 333 332 331 331 330 330 331
336 335 335 336 336 336 337 338 338 338 337 337 337 336 335 334 333 333 333 332 331 331 331 330 330 330 329 329 330 330 328 327 328 328 328 329 329 329 329 329 328 327 327 329 330 330 330 330 330 331 331 331 332 333 333 333 332 331 331 331 330 330
337 337 335 335 336 336 336 335 335 336 336 336 336 335 334 332 333 333 333 332 331 331 330 330 330 330 330 330 330 330 329 328 328 328 328 328 327 327 327 328 328 327 326 327 329 330 330 331 331 331 331 331 332 332 332 332 331 331 331 331 330 330
338 337 335 333 334 335 335 333 333 334 335 336 336 336 335 334 334 334 334 333 332 332 332 331 331 330 331 331 331 330 330 329 329 328 328 328 328 327 327 327 326 326 325 326 329 331 330 331 332 331 331 330 331 331 331 330 330 330 331 330 330 330
338 337 336 334 333 333 333 332 334 334 335 337 337 337 337 337 337 337 336 335 334 333 332 332 332 332 331 331 331 331 330 330 330 329 328 328 328 327 327 327 326 326 326 327 330 331 330 330 331 331 331 330 331 331 331 330 330 330 330 331 330 331
337 336 335 335 334 334 333 334 335 335 335 336 337 337 338 338 338 338 337 337 336 335 334 334 333 332 332 333 331 329 329 329 329 329 328 327 328 328 328 328 328 329 329 330 331 331 330 329 330 330 330 330 330 331 331 329 329 329 330 330 330 331
336 336 336 336 335 335 334 334 335 335 335 335 336 337 338 337 338 338 337 337 336 336 335 335 334 334 334 333 328 325 326 327 326 328 330 329 328 328 328 328 328 329 330 331 331 331 330 328 329 329 329 330 330 331 331 330 330 330 329 330 330 330
337 337 337 337 337 336 336 335 335 334 334 335 335 336 337 337 337 337 337 336 336 336 335 335 335 334 333 330 327 325 325 325 325 328 331 331 331 330 329 329 327 327 329 330 331 330 330 329 329 329 330 330 330 331 331 330 330 330 329 329 330 329
337 337 337 337 337 336 337 337 336 336 335 335 335 335 336 336 336 336 336 336 336 335 335 335 334 333 331 330 330 329 327 326 327 330 331 331 331 331 330 330 330 329 329 329 330 330 330 330 330 330 330 330 330 331 331 329 329 329 328 328 329 329
336 336 337 336 336 336 336 336 336 336 336 336 335 335 335 336 336 336 336 335 335 334 334 334 334 333 332 332 331 331 330 329 328 330 331 330 330 331 331 331 331 330 330 329 330 331 331 330 329 329 330 330 330 330 330 329 329 329 327 327 328 329
336 337 337 336 336 336 336 336 336 336 336 336 336 336 335 336 336 336 335 335 335 334 334 333 333 332 332 332 331 331 331 330 330 331 331 330 329 330 331 331 330 330 330 330 330 331 331 329 327 327 328 329 329 329 329 329 329 328 327 328 329 329
336 336 336 336 336 335 335 334 335 335 335 335 335 335 335 335 335 335 334 334 333 332 332 332 332 331 331 330 330 330 331 332 332 331 331 330 329 329 330 331 331 330 330 329 330 331 332 330 328 327 328 328 329 329 330 329 329 328 328 328 329 329
334 334 334 334 334 334 333 333 334 334 333 333 333 333 333 332 332 332 332 332 331 331 331 331 331 329 328 328 328 329 330 331 331 331 331 330 330 331 330 330 331 331 330 330 330 331 331 331 330 329 328 328 329 330 330 329 329 329 328 328 328 328
332 332 332 331 331 331 331 331 332 331 331 330 330 330 329 329 330 330 330 331 330 330 330 330 328 326 324 323 323 325 327 328 330 331 331 331 331 331 331 331 331 331 330 329 330 331 331 331 330 329 328 328 329 329 329 329 329 329 328 329 330 329
328 328 328 328 329 329 328 329 330 330 329 329 329 329 329 329 330 330 330 330 330 330 329 328 326 324 323 322 321 322 325 327 328 330 331 331 331 331 331 331 331 331 330 329 329 330 331 330 330 329 328 328 329 329 328 328 329 329 328 329 330 329

ECMWFFLT2_850_thetae_114.txt.gz
Theta_e
327 323 319 316 315 313 314 314 313 313 311 311 310 310 310 311 312 313 315 316 316 318 319 319 321 324 325 324 322 320 318 318 318 315 313 312 310 310 310 311 312 315 319 324 328 330 331 332 332 332 332 330 330 330 329 329 329 325 320 321 321 320
329 325 321 318 316 314 314 313 313 314 313 312 312 311 311 311 311 312 314 314 314 317 320 319 319 322 323 324 323 322 321 319 319 318 314 314 312 311 311 313 314 314 317 321 327 330 331 332 332 332 331 331 331 330 330 331 331 328 323 322 322 322
331 328 323 320 319 318 316 315 315 314 314 314 313 312 311 311 311 312 313 314 315 317 321 321 319 320 322 325 324 322 323 321 320 320 316 315 315 313 312 313 314 315 316 319 325 329 331 332 332 333 331 330 331 330 330 331 331 329 326 324 323 322
333 331 327 324 323 322 319 318 318 317 316 315 314 314 313 312 311 311 313 314 314 317 320 321 320 319 319 322 325 323 323 322 321 321 319 316 316 316 314 313 315 316 316 318 322 327 330 332 333 334 331 330 331 330 329 330 331 330 328 326 324 323
335 333 331 328 327 326 322 320 320 320 319 317 315 314 313 313 312 312 313 313 313 315 316 318 318 318 317 318 322 323 323 322 321 321 321 319 318 319 318 315 315 317 318 319 320 324 327 329 332 333 333 331 331 330 329 330 332 332 331 328 324 323
336 335 335 332 330 329 326 324 322 322 322 319 317 317 316 315 314 315 316 314 313 314 314 315 315 317 319 318 318 320 321 322 322 322 322 321 320 321 321 320 318 318 321 321 321 322 324 326 330 333 334 334 333 331 330 331 333 333 332 329 326 323
338 338 338 335 333 332 330 327 324 323 324 323 323 324 323 323 324 326 326 323 319 317 316 317 318 320 323 321 318 318 319 319 320 322 322 322 322 323 324 323 322 321 323 323 322 323 325 329 333 333 334 334 335 333 332 333 333 333 332 331 327 324
341 340 339 337 336 335 332 329 326 326 328 328 330 332 331 332 333 333 333 332 329 324 322 324 327 328 328 326 324 323 322 321 320 320 321 322 322 323 325 326 324 323 323 323 324 328 330 333 334 334 334 334 335 334 334 334 334 334 333 332 329 325
342 341 339 338 338 337 333 332 330 330 332 333 335 336 335 335 335 333 333 335 333 330 329 330 332 332 331 330 329 329 328 327 326 322 319 320 321 323 325 327 326 325 324 322 326 332 335 335 335 334 334 334 334 334 334 334 335 334 333 332 331 326
342 341 339 339 338 337 335 334 334 333 334 336 336 335 335 336 336 335 334 335 335 334 333 333 333 333 333 333 332 330 328 328 330 328 324 319 319 320 323 325 326 326 326 324 328 335 336 336 335 335 334 333 333 332 332 334 334 334 333 333 331 328
342 341 340 340 338 337 336 335 334 334 335 336 336 335 335 335 336 336 335 335 335 336 335 335 334 334 334 334 333 331 329 329 330 331 329 325 319 319 321 322 323 324 325 325 328 334 336 335 335 335 334 332 331 331 332 333 334 334 334 333 331 330
342 342 341 340 338 337 336 335 334 335 336 337 336 335 335 335 336 336 336 335 335 335 335 335 335 335 335 335 335 333 331 330 330 331 331 329 324 320 320 322 323 322 322 323 325 330 333 334 335 335 334 332 331 331 330 331 332 333 333 333 332 331
343 342 341 340 338 337 337 335 335 336 336 337 336 336 335 335 335 335 335 334 334 334 334 334 335 335 335 335 335 336 334 332 331 332 332 332 329 325 324 325 325 324 322 322 323 324 328 332 334 335 334 331 330 330 330 331 331 332 333 333 333 332
342 341 340 339 338 337 337 335 335 336 337 337 336 336 335 335 335 335 334 334 334 333 332 332 333 334 335 336 336 336 336 334 333 333 334 334 331 328 327 327 328 328 325 323 323 322 323 329 333 334 334 332 330 329 330 331 331 332 333 331 330 332
340 340 339 338 337 337 336 336 335 336 336 336 335 335 335 334 334 333 334 334 333 332 331 331 331 332 333 334 335 334 335 335 334 335 334 334 333 330 329 328 329 330 328 325 323 323 325 329 332 333 333 332 331 329 329 330 330 331 332 329 326 329
339 339 338 337 338 337 336 336 336 336 336 335 335 335 335 334 334 333 333 333 332 331 330 330 330 330 331 331 332 332 332 333 335 335 335 335 334 332 331 330 329 329 330 327 324 324 329 331 332 332 333 332 330 329 329 330 330 330 331 330 325 327
339 338 338 337 337 336 336 336 336 336 335 334 334 334 334 334 334 334 333 332 331 330 329 329 330 330 331 331 331 330 331 332 333 334 334 335 335 334 333 332 330 329 330 329 327 327 330 332 333 332 332 332 331 330 329 329 330 330 330 329 327 327
339 338 338 338 337 337 337 336 336 336 335 334 334 333 334 334 334 334 333 332 332 331 330 330 331 331 331 331 330 330 330 331 331 332 333 334 334 334 334 334 332 331 331 331 330 329 330 332 332 332 331 331 331 331 330 329 330 331 330 329 328 328
339 339 338 338 338 337 336 335 335 334 334 333 332 332 333 333 333 333 333 333 332 332 332 332 332 332 331 330 330 330 330 330 331 331 332 333 332 333 333 334 334 333 332 333 332 331 330 330 330 330 331 331 332 331 330 329 330 332 331 329 328 329
339 339 339 338 337 336 334 333 332 332 331 331 332 331 332 333 333 333 333 332 332 332 333 333 333 332 331 330 329 329 329 329 329 329 330 331 332 332 333 334 334 333 333 333 333 332 331 329 329 329 330 332 332 331 331 329 330 332 331 330 329 329
339 338 338 337 336 335 334 331 330 330 330 330 331 331 332 333 333 332 333 332 332 332 333 333 332 332 331 330 329 329 328 328 329 329 329 330 331 332 332 333 333 332 332 333 333 332 331 330 330 330 330 331 331 331 330 330 330 331 331 330 329 329
339 338 337 337 336 336 335 333 331 329 328 329 330 330 331 332 333 333 333 333 333 333 333 333 332 332 331 330 329 329 329 328 328 327 328 328 330 330 331 331 332 332 331 331 332 332 331 331 331 331 331 331 330 330 330 330 331 331 331 330 329 329
339 338 338 338 337 336 335 333 331 329 327 327 329 330 330 330 332 333 333 333 333 334 334 333 333 332 330 329 329 328 329 329 328 327 326 327 328 329 330 331 331 331 330 330 331 330 331 332 331 331 331 331 330 331 331 331 331 331 331 330 329 329
338 338 338 338 338 337 337 334 332 329 327 327 328 329 329 329 331 332 333 333 333 334 334 334 333 332 330 329 328 328 328 328 328 327 326 326 327 328 329 330 331 331 331 330 330 330 330 331 330 330 331 331 330 331 332 332 332 332 331 330 330 330
337 337 337 337 337 337 337 336 334 332 329 328 328 329 330 330 331 331 331 332 333 334 334 333 332 330 328 328 327 328 328 328 328 328 327 327 326 327 328 329 329 330 330 330 330 330 330 330 330 330 331 332 331 330 331 331 332 332 331 331 331 330
337 338 338 337 337 337 337 337 336 335 333 331 331 331 331 332 333 333 332 333 335 335 334 331 328 327 328 326 325 325 325 326 327 328 328 328 327 327 327 328 328 329 329 330 331 331 330 330 330 330 331 331 331 330 329 330 331 332 331 331 331 331
337 338 338 337 336 337 336 336 335 334 333 333 333 333 333 334 336 336 336 336 337 336 335 331 328 329 329 327 326 326 325 325 325 325 326 327 328 328 328 328 328 328 329 329 330 331 330 330 331 330 330 331 331 330 329 330 331 331 331 330 331 331
338 337 337 337 335 334 334 333 333 332 332 333 334 334 335 336 337 337 337 338 337 337 336 333 331 331 330 329 329 328 327 326 325 324 325 326 327 328 328 328 327 328 329 330 330 330 329 329 329 330 331 331 331 331 330 329 330 330 330 330 330 331
338 337 336 336 335 333 333 333 333 333 333 333 334 335 336 336 336 337 336 337 337 336 336 334 332 331 330 330 330 329 329 329 327 325 325 326 327 327 328 328 328 327 328 330 331 331 330 329 328 329 331 331 331 331 331 330 330 330 330 329 329 330
337 336 335 335 335 335 335 334 333 334 334 333 334 334 335 336 336 336 336 336 336 335 335 335 333 332 331 331 331 331 331 331 329 328 326 325 326 326 328 329 329 329 328 330 331 332 331 330 329 330 330 331 331 331 331 330 330 330 330 329 329 329
336 335 336 336 336 336 335 335 334 334 334 334 333 333 334 334 335 335 335 335 335 335 335 335 334 334 333 332 332 332 332 331 330 330 328 327 327 328 328 329 330 330 330 330 330 331 331 330 329 330 331 331 331 330 330 330 330 330 330 329 329 328
337 336 337 337 337 337 336 336 336 335 335 335 334 334 334 334 334 334 335 335 335 335 335 334 334 333 332 331 330 330 330 331 331 330 330 330 330 329 328 329 330 331 331 330 330 330 330 329 329 330 331 331 331 330 330 329 329 329 329 329 329 328
337 337 337 337 337 337 336 336 336 335 336 336 335 335 334 333 333 334 334 334 334 334 334 333 332 331 330 330 329 328 327 327 328 328 329 330 331 330 329 330 330 330 331 330 330 330 330 330 329 329 330 331 331 331 331 330 330 329 329 329 329 328
336 335 336 336 336 336 335 335 335 335 335 334 334 334 333 332 332 332 332 332 332 331 331 331 330 329 329 329 327 325 323 323 323 323 325 328 330 331 331 330 330 329 329 330 330 331 330 330 329 328 330 331 331 331 331 331 330 330 329 329 329 328
335 334 335 335 335 335 335 334 334 334 333 332 332 332 332 331 331 331 331 331 330 330 330 329 329 328 328 327 325 324 323 323 323 322 323 325 327 329 330 330 330 329 328 327 327 330 331 330 329 327 329 331 331 331 331 331 331 331 330 330 329 328
334 334 334 333 333 333 333 333 332 332 331 331 331 330 330 330 330 329 329 329 329 329 329 329 329 328 327 326 325 325 325 324 323 323 324 325 326 328 330 330 330 330 328 326 327 329 330 330 329 327 328 329 330 330 331 331 331 331 331 330 330 328
332 332 332 331 331 331 331 330 330 330 330 330 329 328 328 328 328 328 328 328 328 328 329 329 328 328 327 326 326 326 325 324 324 325 326 326 327 328 329 330 330 330 329 328 329 329 329 329 329 328 328 328 329 329 330 331 331 331 331 331 330 328

ECMWFFLT2_850_thetae_117.txt.gz
Theta_e
322 319 318 316 315 315 313 311 310 310 310 310 310 311 314 316 316 318 321 322 327 331 331 332 331 330 327 324 323 322 320 318 316 312 311 310 309 310 309 316 324 325 327 329 329 329 327 327 328 328 328 327 328 329 329 329 327 325 323 322 321 321
323 321 318 316 315 315 314 312 311 310 310 310 310 310 311 314 315 317 319 320 322 324 325 326 326 327 327 324 324 323 321 320 318 315 312 311 309 310 310 314 322 325 326 329 330 329 328 329 329 328 328 328 328 329 330 330 330 329 326 324 323 322
325 323 320 317 315 314 314 313 312 311 310 310 310 310 310 311 312 314 315 315 317 318 319 320 320 323 325 324 324 324 323 322 320 317 314 313 311 311 311 313 319 324 326 328 330 330 329 329 329 328 329 328 329 330 330 330 331 331 328 327 325 322
326 324 322 320 317 314 313 313 313 313 312 311 311 311 310 311 311 312 312 313 313 314 316 317 317 318 320 322 323 323 324 323 321 320 316 315 314 312 312 313 316 320 324 328 330 331 330 328 328 329 329 329 329 330 330 330 332 332 330 329 327 324
328 326 325 324 320 317 315 314 314 314 314 313 312 312 312 311 311 311 311 312 312 313 313 314 315 315 316 319 321 323 323 324 323 322 319 317 317 316 314 313 314 316 320 326 331 331 330 329 329 329 330 330 330 330 330 331 332 333 332 331 329 325
330 329 329 327 325 322 319 318 317 316 315 314 314 313 313 312 312 311 311 311 312 312 312 313 314 314 314 315 318 321 322 324 324 323 322 320 320 320 318 316 315 315 317 323 330 331 332 332 331 330 329 330 330 330 330 332 333 333 333 333 331 327
333 332 332 331 329 328 325 322 320 318 317 316 315 315 315 314 314 314 316 318 317 316 315 314 313 313 316 317 316 318 320 322 323 323 323 322 321 322 322 320 318 317 317 321 328 331 332 333 332 331 329 329 331 332 331 332 333 334 334 334 333 329
335 335 335 335 333 332 329 326 324 321 318 318 318 319 321 320 322 324 327 328 328 326 323 319 318 319 323 325 320 317 319 320 321 322 323 323 323 323 324 324 322 320 319 322 327 330 330 332 332 332 331 330 332 333 333 333 333 334 334 334 333 331
336 337 338 337 335 334 332 328 326 323 320 322 324 328 329 328 331 333 332 331 331 332 330 326 325 327 330 330 327 323 323 324 324 323 322 323 324 324 325 326 325 323 322 322 325 327 328 332 333 333 333 332 332 333 333 333 334 334 334 334 333 331
338 339 339 338 336 335 334 329 327 324 324 328 331 334 334 333 334 334 333 332 331 332 333 331 331 331 332 332 331 330 330 330 329 328 325 323 324 325 326 326 327 326 325 323 324 326 328 332 334 334 334 333 333 333 332 333 332 333 334 333 332 331
341 341 339 338 336 336 335 331 329 328 329 332 335 335 335 334 334 334 334 334 333 333 334 334 334 334 334 333 333 333 333 333 332 332 330 327 325 325 326 327 327 327 328 326 325 327 329 332 335 335 334 334 334 333 332 331 331 331 333 332 330 330
342 341 339 338 337 337 336 334 333 333 333 334 335 335 334 334 334 334 334 334 334 334 334 335 335 335 335 335 334 334 334 334 334 333 333 331 329 326 325 326 326 327 327 327 327 327 328 331 334 334 334 334 334 333 331 330 330 331 331 330 328 327
342 340 340 339 337 336 336 335 334 334 334 335 336 335 334 335 334 334 334 333 334 334 334 335 335 335 335 335 335 335 335 334 335 335 334 334 332 330 327 325 325 325 326 326 327 327 327 328 330 332 332 334 334 333 331 330 330 330 330 330 327 325
341 341 340 340 338 337 336 335 334 334 334 335 336 336 336 336 335 335 334 334 334 334 335 335 335 335 335 335 335 335 334 334 334 334 335 334 334 332 330 327 325 326 326 326 327 327 327 327 328 329 331 333 334 334 332 330 329 329 330 329 327 327
341 341 340 340 338 337 336 336 335 335 336 336 337 337 337 336 336 336 336 335 335 335 335 335 334 334 334 333 333 333 332 332 333 334 335 335 334 332 331 330 328 328 328 328 328 328 328 328 327 329 331 332 333 333 332 330 329 329 330 329 328 329
341 340 339 339 338 337 337 336 335 336 336 337 337 337 336 336 336 336 335 334 334 334 334 334 334 333 332 331 331 331 331 331 331 332 333 334 334 333 333 333 331 329 329 329 329 329 329 329 328 329 332 332 332 333 333 331 330 329 329 329 329 330
340 339 338 338 338 337 336 336 336 336 336 336 336 336 336 336 335 335 335 334 334 334 333 333 332 331 330 331 331 331 331 330 330 330 331 332 334 334 333 334 333 332 330 330 330 330 330 330 329 329 332 332 332 333 332 332 330 329 329 329 329 330
339 339 338 338 338 338 336 336 336 335 336 336 336 336 335 335 334 334 334 334 334 333 332 332 331 331 331 331 331 331 331 330 330 330 330 331 332 332 332 333 333 333 332 331 331 330 330 331 330 330 332 332 332 333 332 332 330 329 329 329 330 330
338 338 337 338 338 337 336 335 335 335 335 335 335 335 335 334 334 335 334 334 333 333 332 332 332 332 332 332 332 331 330 329 329 329 329 330 330 331 331 332 332 333 333 332 331 331 330 330 330 331 331 331 332 332 331 332 331 330 329 329 330 330
338 338 338 338 338 336 335 333 333 334 334 333 334 334 334 334 335 336 335 335 334 333 333 333 333 333 333 332 331 330 329 329 329 328 328 329 329 329 330 331 332 332 332 333 332 332 331 331 331 331 331 331 331 331 331 331 331 331 330 329 330 330
338 338 338 338 337 335 334 333 332 333 333 333 335 335 335 336 336 336 336 335 335 334 333 333 334 333 332 330 330 329 329 329 329 329 328 329 329 329 329 330 332 332 332 333 333 332 332 332 332 332 331 331 331 331 331 331 331 331 330 329 330 330
338 338 338 337 337 335 335 334 332 332 333 334 334 335 335 336 336 335 335 335 334 333 333 334 334 331 329 328 329 329 328 328 328 329 329 329 329 329 329 330 331 332 332 332 332 332 332 332 333 332 331 331 330 330 331 331 331 331 330 330 330 330
338 337 337 337 336 336 335 334 332 331 331 332 332 333 334 334 334 334 334 334 333 333 333 333 332 329 328 328 328 328 328 328 328 328 329 329 329 329 329 329 331 332 331 332 332 332 332 331 332 332 331 330 330 330 330 330 330 330 330 330 331 330
338 337 336 336 335 335 335 334 333 331 330 330 331 331 331 332 332 332 333 332 332 332 332 331 330 329 329 328 328 328 327 327 327 328 329 329 329 329 328 328 329 330 331 332 331 331 331 331 332 332 332 331 330 330 330 330 330 329 329 330 331 331
338 336 334 334 334 334 335 334 333 331 331 331 331 330 331 332 333 333 333 333 331 330 330 330 330 329 328 326 326 326 326 326 326 326 326 326 327 328 328 328 328 329 329 330 330 330 331 331 331 331 332 331 330 330 330 330 330 329 329 329 330 331
337 335 333 333 333 333 333 334 332 331 330 330 331 332 333 334 333 333 333 333 331 330 330 331 331 330 329 326 325 326 326 325 325 325 325 325 325 325 326 327 328 329 329 329 330 330 330 330 330 331 331 331 330 329 330 330 330 330 330 329 329 330
335 334 333 333 333 332 331 331 331 330 330 331 332 334 334 334 333 333 333 333 333 332 332 333 332 332 332 329 328 328 328 328 327 327 327 326 326 325 325 326 327 328 329 329 330 330 329 329 331 331 331 331 330 330 330 330 330 330 330 330 330 330
334 334 335 334 334 333 333 332 331 331 331 332 333 332 333 333 334 334 334 334 334 334 334 334 333 333 333 331 329 329 329 330 330 329 328 327 327 326 326 326 326 327 328 329 330 329 329 328 329 330 331 331 330 330 329 330 330 330 329 329 330 330
336 335 334 335 335 335 335 333 331 330 331 331 331 331 332 333 334 334 334 333 333 334 334 333 333 333 333 332 331 330 330 330 330 330 330 329 329 329 328 327 327 327 328 329 330 330 329 328 328 329 330 331 331 330 330 330 330 330 329 329 330 330
337 337 336 335 335 335 334 333 332 331 330 331 332 332 333 333 333 333 333 333 333 333 333 333 333 333 333 333 333 333 332 332 331 330 330 330 330 330 329 329 328 328 329 329 330 330 330 329 328 328 330 331 331 330 330 329 329 330 330 330 330 330
338 337 336 335 334 334 334 333 333 332 332 332 332 333 333 333 333 333 334 334 334 333 333 333 333 333 333 333 333 333 332 331 329 329 329 329 329 330 330 330 330 329 329 329 329 330 331 331 329 329 330 331 331 331 330 330 329 330 330 330 330 330
337 336 335 334 334 335 335 334 333 333 334 334 333 333 334 334 334 333 333 333 333 333 333 333 333 332 332 332 332 332 330 329 328 328 327 326 325 326 327 328 329 330 330 330 329 330 331 331 330 330 330 330 330 330 330 330 330 330 330 330 330 329
335 335 333 334 336 336 335 335 334 334 335 335 334 333 334 334 333 333 332 332 331 331 332 332 331 331 331 331 330 329 328 328 327 326 324 323 323 323 323 323 325 327 329 330 330 330 330 330 330 330 330 330 330 330 330 330 330 330 331 330 330 330
334 334 334 335 336 336 336 335 335 334 334 334 334 333 333 333 332 331 331 330 330 330 330 330 330 329 328 328 328 327 327 327 326 325 325 324 324 324 323 322 323 325 327 329 330 330 330 330 330 330 330 329 329 330 330 330 330 330 330 330 330 330
334 335 336 336 335 335 335 335 334 333 333 332 332 332 332 331 330 330 330 330 330 330 330 330 329 328 327 327 327 327 326 326 326 326 326 325 324 324 323 323 324 324 326 328 330 331 330 330 330 330 329 329 329 329 329 330 330 330 330 331 330 330
335 335 335 335 335 335 334 334 333 333 332 331 331 330 329 329 329 329 329 329 329 329 329 329 328 328 327 327 327 326 326 326 326 326 325 324 324 325 325 325 325 325 326 328 329 330 330 330 330 329 329 330 330 330 330 330 330 330 331 331 331 330
334 334 334 334 333 333 333 333 332 331 331 330 329 328 328 328 329 329 328 328 327 327 327 327 327 326 326 326 326 327 326 326 326 325 324 324 325 326 326 326 326 326 327 328 329 330 330 329 329 329 330 330 328 328 329 330 330 330 330 331 331 330

ECMWFFLT2_850_thetae_123.txt.gz
Theta_e
335 334 332 328 325 323 316 310 310 313 316 318 317 317 318 319 323 327 332 334 334 335 333 330 325 319 318 318 317 316 314 311 310 310 311 312 314 317 320 323 325 324 323 324 326 328 326 327 328 329 329 328 328 329 328 326 325 324 323 322 322 321
333 331 329 324 323 320 313 309 310 312 314 316 317 317 317 318 321 325 331 333 332 333 332 331 328 321 318 318 317 318 316 314 311 310 310 311 315 317 320 322 325 325 325 325 326 327 327 327 327 328 328 328 328 329 329 328 327 326 324 322 322 321
330 327 324 322 320 317 311 309 310 311 312 314 315 316 317 317 320 323 329 332 332 332 330 328 327 322 321 320 319 319 318 317 315 311 310 310 313 317 320 323 326 326 327 328 327 327 328 327 327 328 328 328 327 328 329 329 329 328 327 324 322 322
326 323 321 319 318 315 310 309 310 310 311 312 313 314 316 317 319 322 325 329 331 329 326 326 326 322 320 321 322 321 320 320 319 316 312 310 311 315 319 323 326 327 329 330 329 329 329 329 328 327 328 328 328 327 328 329 330 331 330 327 324 323
323 320 319 317 316 313 309 309 309 310 310 311 310 311 313 315 317 319 319 322 323 321 320 321 323 321 318 319 320 321 322 322 322 320 316 313 311 312 316 322 327 329 330 330 331 330 330 331 329 328 329 329 328 327 327 328 330 332 331 330 328 325
321 319 318 316 316 313 310 310 310 309 310 310 310 310 311 312 313 314 315 315 316 315 315 315 317 318 317 317 316 317 320 322 324 323 321 317 314 312 312 317 324 329 330 330 331 331 331 331 331 331 330 330 329 327 327 328 329 331 331 331 330 328
320 318 317 315 315 314 313 312 311 311 311 310 311 310 310 312 311 312 312 313 314 314 315 315 314 315 317 318 317 317 317 320 323 325 324 322 319 317 314 314 317 323 328 330 331 331 331 331 332 332 332 332 330 328 327 328 330 330 330 331 331 330
320 319 317 316 314 314 313 313 313 312 312 312 312 312 312 312 312 314 317 320 322 322 321 319 317 318 321 325 325 322 319 318 319 322 325 325 324 321 320 317 315 316 321 327 330 331 331 331 331 332 332 333 332 330 328 329 330 330 330 330 331 331
320 319 318 317 315 314 313 313 314 313 314 313 313 314 313 314 319 325 328 329 330 330 329 326 324 324 327 330 330 328 324 322 322 323 324 325 325 324 323 322 321 318 317 320 325 328 330 331 331 332 332 332 332 331 330 331 331 331 331 331 331 331
321 320 320 319 318 317 316 315 314 315 315 316 318 319 319 323 329 333 332 331 331 331 332 332 330 330 330 331 332 331 330 329 330 330 329 328 327 326 325 324 324 324 322 320 320 323 327 330 331 333 332 332 332 331 330 332 332 332 332 331 330 330
324 323 323 322 322 322 319 317 316 317 319 322 327 328 328 332 334 334 333 332 332 332 332 333 333 333 333 333 333 333 333 333 333 333 332 332 331 329 328 326 325 325 326 326 323 321 321 325 329 332 333 332 332 331 330 332 334 334 333 332 331 330
327 327 328 328 326 326 323 319 318 320 325 330 333 333 333 334 334 334 333 333 333 333 333 332 333 333 334 334 333 333 333 334 335 334 334 334 333 333 331 330 328 326 326 327 327 325 323 324 328 331 333 332 331 331 331 332 334 334 333 333 331 330
331 332 335 334 331 331 327 321 320 323 329 333 335 335 335 334 333 332 332 332 333 332 332 332 332 333 333 333 332 331 331 333 335 335 334 334 334 333 333 333 332 330 328 327 327 328 327 327 328 330 332 331 331 330 331 332 333 333 333 333 332 330
334 336 338 337 335 332 327 323 324 327 330 333 335 335 334 334 333 332 332 332 333 332 333 333 333 333 333 332 331 330 330 331 332 333 332 332 332 332 332 333 334 333 331 329 328 327 327 327 328 329 330 330 329 330 329 329 331 332 333 333 333 331
336 338 338 337 337 332 328 328 330 331 332 333 335 335 334 334 333 333 333 333 333 334 333 333 333 333 332 331 330 330 330 330 330 330 330 330 330 330 331 332 332 333 333 332 331 329 328 327 327 327 328 328 328 328 328 327 328 330 331 332 333 332
338 339 339 338 337 334 333 334 335 335 334 333 334 335 335 335 335 334 333 333 334 333 333 333 332 332 331 330 330 329 329 329 329 329 330 330 330 330 330 330 330 331 332 333 333 332 331 329 327 326 326 327 327 327 327 327 326 327 329 331 332 332
340 340 338 338 337 336 336 336 336 336 334 334 334 335 335 335 334 334 334 334 333 333 333 333 332 332 331 330 330 330 330 330 330 330 330 330 329 329 329 329 329 330 331 332 332 333 333 333 331 328 327 328 329 329 328 328 327 325 326 328 330 331
341 340 339 339 338 337 337 337 336 335 334 334 334 334 334 334 333 334 334 334 334 333 333 332 332 331 331 331 331 331 331 331 331 330 329 328 328 328 328 328 328 328 329 329 330 331 332 333 333 331 329 329 330 330 329 330 329 326 323 325 328 331
341 341 340 339 339 338 338 337 336 335 334 334 334 334 334 334 333 333 333 334 334 333 333 332 332 332 331 331 332 331 331 330 329 329 328 328 327 327 328 327 328 328 328 327 327 328 329 331 332 332 331 331 330 329 329 330 330 328 324 321 325 329
342 342 341 340 340 339 338 337 336 335 334 334 334 334 333 333 333 333 333 334 334 334 334 333 333 333 332 331 331 331 330 330 329 328 328 328 328 328 327 328 328 328 327 327 326 326 328 330 332 332 331 331 331 330 330 330 331 331 328 323 321 325
342 342 341 341 339 338 337 336 335 335 335 334 334 334 333 333 333 334 334 334 334 334 334 334 333 333 332 332 331 331 330 329 329 328 328 328 328 327 327 328 328 328 328 328 328 327 327 329 330 330 330 330 331 331 332 331 331 331 330 327 323 324
342 341 340 339 338 337 336 336 336 335 334 333 332 333 334 333 333 334 334 334 334 333 333 333 333 333 332 332 332 332 331 330 329 328 328 328 327 327 327 327 327 328 329 330 330 329 327 328 329 329 330 330 331 331 331 331 331 331 330 329 327 327
341 340 339 338 337 337 336 336 335 333 332 332 333 333 334 334 334 334 334 333 333 333 333 333 333 334 333 333 334 334 334 332 331 329 329 328 328 327 326 326 326 326 327 328 329 329 327 328 329 329 329 329 330 330 330 330 330 331 330 330 330 330
340 338 337 337 337 337 336 336 335 333 333 333 334 334 333 334 333 333 333 332 332 332 333 333 334 335 335 335 334 334 334 334 333 332 330 330 329 329 328 328 328 328 328 328 328 328 327 327 328 329 329 329 329 329 329 330 329 329 329 330 330 330
339 338 337 337 337 337 336 335 334 334 332 332 334 334 332 332 332 331 331 331 330 330 332 333 334 334 334 334 334 334 333 333 333 332 332 331 330 330 330 329 330 330 330 330 329 329 328 328 327 328 328 329 329 329 329 330 329 329 329 329 330 330
339 338 337 337 338 337 335 335 334 333 332 332 333 333 333 333 333 331 330 329 330 330 332 332 333 333 333 333 333 333 333 333 332 332 332 332 332 332 332 331 332 331 331 331 330 329 330 329 328 328 328 329 330 330 330 330 330 330 330 329 329 329
339 338 338 338 337 336 335 334 334 333 333 333 334 334 334 333 332 331 330 330 331 331 332 332 332 332 332 332 332 332 332 332 331 331 331 332 332 332 332 332 332 331 331 331 330 330 330 330 329 329 329 329 329 329 330 329 329 330 330 329 328 328
338 338 338 337 336 335 335 335 334 334 334 333 333 333 333 332 331 332 332 332 332 332 332 332 332 332 331 332 332 331 331 331 330 330 330 330 331 331 331 330 330 329 330 330 330 330 330 330 330 330 329 329 329 329 329 329 329 329 329 329 329 328
339 338 337 337 336 335 335 335 334 334 333 332 332 332 332 332 332 332 332 333 332 332 332 332 332 332 331 331 331 330 330 330 330 329 329 328 329 329 329 329 328 327 327 327 327 328 328 329 329 330 330 330 329 328 329 329 329 329 328 329 329 329
338 337 337 336 336 335 335 334 334 333 333 332 332 332 332 332 332 333 332 332 332 331 331 330 330 329 329 328 328 329 328 328 328 328 327 327 327 327 328 327 327 326 326 325 326 326 326 326 326 327 328 330 330 329 329 329 328 328 328 329 329 328
337 337 336 336 335 335 334 334 334 333 333 333 332 333 332 333 333 332 332 332 331 330 329 327 326 326 325 325 326 326 326 326 326 326 326 326 326 326 326 326 326 325 325 325 325 325 326 325 325 325 325 328 330 329 329 329 329 328 328 329 328 328
336 335 336 335 335 335 334 334 334 333 333 333 333 333 333 332 332 332 331 331 330 328 326 324 324 324 324 324 324 324 325 325 325 325 325 324 324 324 325 325 325 325 325 324 324 325 325 325 325 325 325 326 327 328 330 330 330 330 329 329 329 329
335 336 336 336 335 334 334 334 335 335 334 333 333 332 332 332 331 331 330 330 328 325 323 322 322 322 322 322 322 322 322 323 323 323 323 323 324 324 325 325 325 324 324 324 325 326 326 326 325 326 325 325 325 326 328 329 330 329 329 329 329 329
335 336 336 336 335 334 334 334 334 334 333 332 332 332 331 331 330 330 328 326 324 322 322 321 321 320 321 320 321 321 321 322 322 323 324 324 324 325 325 325 324 323 323 324 325 326 327 327 326 326 326 325 325 324 324 326 328 328 329 329 329 329
335 335 335 334 335 334 333 333 333 332 332 332 332 332 331 330 330 329 326 323 322 322 321 320 320 320 320 320 320 321 321 322 323 323 324 324 324 325 325 325 323 323 323 324 324 325 326 327 326 326 326 325 325 325 324 325 327 328 329 329 329 328
335 334 334 334 334 334 333 333 332 332 333 332 331 331 330 330 329 328 325 323 322 321 320 319 319 319 320 321 321 321 321 322 322 322 322 323 324 325 325 324 323 323 323 324 324 324 326 327 327 326 326 326 326 326 326 326 327 328 328 328 329 328
333 333 334 333 333 333 333 333 332 333 332 331 331 330 330 329 329 326 324 322 321 320 319 319 320 320 321 321 321 320 320 320 320 320 321 323 325 325 325 323 323 323 323 324 325 325 325 326 327 326 326 327 327 326 326 327 327 328 328 328 328 328